Date,TemperatureHighF,TemperatureAvgF,TemperatureLowF,DewpointHighF,DewpointAvgF,DewpointLowF,HumidityHigh,HumidityAvg,HumidityLow,PressureMaxIn,PressureMinIn,WindSpeedMaxMPH,WindSpeedAvgMPH,GustSpeedMaxMPH,PrecipitationSumIn
2013-1-1,35,26,20,20,15,12,79,62,43,30.38,30.12,15,3,16,0.00
2013-1-2,35,22,10,12,9,5,83,59,29,30.45,30.32,9,1,10,0.00
2013-1-3,35,23,13,14,11,8,82,62,39,30.55,30.42,8,0,9,0.00
2013-1-4,34,21,9,12,7,4,85,58,31,30.54,30.40,8,1,9,0.00
2013-1-5,41,28,19,8,6,4,58,41,22,30.56,30.43,11,2,15,0.00
2013-1-6,44,28,13,12,9,6,72,48,23,30.55,30.26,6,0,6,0.00
2013-1-7,48,35,26,16,14,12,62,43,28,30.26,29.98,8,1,11,0.00
2013-1-8,48,33,20,16,13,10,74,45,23,30.33,29.99,12,3,16,0.00
2013-1-9,52,35,22,16,14,12,64,44,22,30.51,30.19,9,1,10,0.00
2013-1-10,49,36,23,22,15,12,66,44,24,30.19,29.76,10,1,14,0.00
2013-1-11,41,32,22,24,6,-8,59,34,20,29.94,29.62,20,5,27,0.00
2013-1-12,33,20,8,0,-4,-12,59,35,17,30.21,29.94,12,2,14,0.00
2013-1-13,30,19,7,5,-1,-6,68,42,25,30.31,30.17,8,1,10,0.00
2013-1-14,29,21,11,21,10,0,85,62,41,30.28,30.10,12,1,12,0.01
2013-1-15,24,14,5,6,2,-1,85,60,40,30.67,30.27,12,2,13,0.00
2013-1-16,39,25,11,15,8,2,71,50,34,30.72,30.55,11,2,13,0.00
2013-1-17,51,31,16,17,14,10,80,53,24,30.69,30.51,6,1,8,0.00
2013-1-18,51,36,24,20,17,15,72,49,27,30.51,30.29,7,0,8,0.00
2013-1-19,52,36,24,19,16,11,69,45,22,30.43,30.32,8,1,11,0.00
2013-1-20,54,36,20,16,11,5,69,39,16,30.40,30.24,10,1,12,0.00
2013-1-21,53,36,20,16,11,8,63,38,18,30.37,30.24,9,1,11,0.00
2013-1-22,60,41,24,17,12,0,62,34,9,30.36,30.24,15,2,15,0.00
2013-1-23,60,42,26,15,10,5,52,29,11,30.39,30.27,11,1,11,0.00
2013-1-24,62,46,30,34,16,8,56,33,16,30.33,30.15,14,1,14,0.00
2013-1-25,59,49,38,38,35,30,78,59,46,30.21,30.06,7,1,10,0.00
2013-1-26,57,48,42,49,42,36,91,77,63,30.06,29.78,13,2,17,0.12
2013-1-27,60,48,42,41,37,31,86,65,35,29.90,29.79,15,2,18,0.00
2013-1-28,55,44,36,38,33,18,81,66,37,29.83,29.62,18,4,23,0.03
2013-1-29,36,31,26,21,14,4,71,52,30,30.07,29.66,25,5,28,0.01
2013-1-30,42,31,20,17,14,8,74,52,30,30.34,30.07,18,4,22,0.00
2013-1-31,52,37,24,24,19,11,81,51,26,30.40,30.27,14,2,16,0.00
2013-2-1,57,40,26,22,19,13,74,46,21,30.31,30.18,12,2,18,0.00
2013-2-2,58,43,30,22,17,9,63,38,20,30.38,30.26,9,1,11,0.00
2013-2-3,52,41,30,28,18,7,53,40,22,30.29,29.98,8,1,11,0.00
2013-2-4,59,44,31,29,24,18,82,49,23,30.08,29.94,12,2,14,0.00
2013-2-5,62,44,31,24,19,14,65,39,17,30.08,29.93,7,1,10,0.00
2013-2-6,61,45,29,27,21,16,62,39,25,29.97,29.80,16,2,16,0.00
2013-2-7,58,44,31,27,22,14,73,43,18,30.09,29.94,16,2,22,0.00
2013-2-8,58,46,32,24,20,15,63,38,23,30.06,29.68,20,3,22,0.00
2013-2-9,49,39,28,22,12,2,61,35,20,29.83,29.52,24,6,29,0.00
2013-2-10,44,32,24,20,14,9,68,49,24,30.04,29.83,17,2,17,0.00
2013-2-11,49,33,20,22,15,1,79,52,15,30.09,29.94,15,2,21,0.00
2013-2-12,42,31,21,22,12,3,81,50,20,30.27,29.99,14,2,17,0.00
2013-2-13,48,34,23,17,13,10,60,44,25,30.28,30.13,16,3,17,0.00
2013-2-14,52,38,25,20,17,14,67,46,23,30.24,30.08,22,3,22,0.00
2013-2-15,52,38,24,22,13,2,75,41,13,30.41,30.24,19,2,24,0.00
2013-2-16,57,42,30,12,8,-4,43,26,9,30.45,30.12,13,2,15,0.00
2013-2-17,60,43,25,8,3,-3,41,21,8,30.13,29.68,14,2,21,0.00
2013-2-18,52,40,30,16,-4,-24,48,20,4,30.07,29.78,15,3,18,0.00
2013-2-19,60,42,23,34,7,-12,67,28,9,30.08,29.71,15,3,21,0.00
2013-2-20,51,43,34,34,26,14,75,55,24,29.71,29.40,22,4,24,0.00
2013-2-21,45,34,26,27,24,20,92,68,38,29.93,29.48,14,2,18,0.27
2013-2-22,42,34,28,24,21,13,74,60,34,30.10,29.91,15,2,22,0.00
2013-2-23,48,36,22,18,13,8,63,41,23,30.14,29.75,10,2,14,0.00
2013-2-24,42,33,26,24,17,4,89,54,25,29.93,29.63,18,4,22,0.00
2013-2-25,49,34,20,24,14,5,89,50,18,30.18,29.93,13,2,17,0.11
2013-2-26,49,35,25,15,8,-8,63,36,13,30.13,29.84,24,4,25,0.00
2013-2-27,45,32,18,12,7,0,69,38,16,30.36,30.12,9,1,10,0.00
2013-2-28,53,37,24,8,5,-4,44,28,10,30.42,30.28,13,3,19,0.00
2013-3-1,59,44,29,21,14,6,47,31,18,30.41,30.23,11,2,17,0.00
2013-3-2,65,48,32,24,21,19,64,38,18,30.39,30.12,11,2,14,0.00
2013-3-3,65,52,37,22,16,-5,48,27,6,30.12,29.77,16,2,17,0.00
2013-3-4,63,53,42,24,20,14,41,28,16,29.99,29.65,18,3,26,0.00
2013-3-5,60,46,29,22,17,9,65,34,13,30.24,29.98,10,1,12,0.00
2013-3-6,66,54,46,26,22,18,37,29,18,30.13,29.81,13,2,17,0.00
2013-3-7,70,56,38,21,17,13,44,24,12,29.94,29.73,16,2,17,0.00
2013-3-8,61,48,39,42,26,13,87,47,19,29.82,29.61,16,3,22,0.17
2013-3-9,44,38,32,35,25,17,88,61,35,29.99,29.70,16,3,20,0.04
2013-3-10,51,39,28,29,23,16,86,57,28,30.18,29.98,12,1,18,0.00
2013-3-11,62,47,33,21,17,8,53,33,13,30.21,29.96,13,3,18,0.00
2013-3-12,66,50,34,25,22,20,61,35,18,30.16,30.01,10,1,14,0.00
2013-3-13,69,53,37,27,22,15,61,33,16,30.26,30.08,11,1,15,0.00
2013-3-14,73,56,41,25,19,10,46,26,10,30.22,30.04,9,1,11,0.00
2013-3-15,78,60,43,22,16,4,38,19,6,30.07,29.75,9,1,11,0.00
2013-3-16,72,59,48,33,21,14,46,23,14,29.76,29.55,14,3,20,0.00
2013-3-17,70,54,42,39,20,-14,67,35,4,29.72,29.53,23,3,30,0.00
2013-3-18,68,52,36,14,6,0,38,18,7,29.89,29.72,18,2,20,0.00
2013-3-19,64,50,40,18,11,0,40,21,13,30.08,29.86,14,2,16,0.00
2013-3-20,64,49,31,26,19,15,57,32,17,30.17,29.78,17,1,17,0.00
2013-3-21,72,57,45,32,18,-9,47,26,5,29.78,29.46,19,4,30,0.00
2013-3-22,65,51,35,26,13,5,41,23,10,29.67,29.49,21,3,24,0.00
2013-3-23,50,40,28,27,3,-18,56,25,8,30.07,29.59,29,5,30,0.00
2013-3-24,53,38,22,0,-6,-14,30,16,9,30.19,29.95,18,3,22,0.00
2013-3-25,55,40,22,12,6,-1,50,26,14,30.23,30.07,13,2,18,0.00
2013-3-26,66,48,29,12,10,7,45,23,11,30.18,29.89,15,3,17,0.00
2013-3-27,71,58,45,14,11,4,28,16,9,29.96,29.80,12,2,16,0.00
2013-3-28,73,60,44,23,15,7,31,18,9,29.95,29.81,18,2,21,0.00
2013-3-29,74,59,43,25,20,12,43,24,10,30.00,29.85,14,1,14,0.00
2013-3-30,73,58,42,26,20,15,45,25,11,30.00,29.81,14,1,21,0.00
2013-3-31,72,60,47,31,27,24,48,30,18,29.91,29.74,13,1,15,0.00
2013-4-1,75,62,46,26,18,3,45,21,7,29.85,29.63,14,2,17,0.00
2013-4-2,68,55,45,26,16,6,38,22,10,29.82,29.61,20,2,26,0.00
2013-4-3,68,52,37,31,25,17,69,40,15,30.01,29.81,14,2,18,0.00
2013-4-4,73,56,38,27,18,8,56,28,9,30.11,29.92,9,1,11,0.00
2013-4-5,77,64,55,18,12,7,22,14,8,29.94,29.57,18,3,22,0.00
2013-4-6,76,62,47,27,20,12,42,22,9,29.79,29.60,17,2,18,0.00
2013-4-7,76,63,45,27,19,11,44,21,10,29.69,29.51,18,2,29,0.00
2013-4-8,77,63,48,28,21,7,42,21,7,29.54,29.12,30,5,31,0.00
2013-4-9,54,45,37,35,30,24,89,58,37,29.76,29.15,19,3,25,0.10
2013-4-10,48,40,34,34,27,21,91,61,41,29.96,29.76,14,2,16,0.08
2013-4-11,66,47,28,32,25,18,72,45,23,30.00,29.77,17,3,20,0.00
2013-4-12,69,55,41,34,29,21,71,39,19,29.82,29.66,12,1,14,0.00
2013-4-13,75,59,41,30,22,10,60,29,9,29.76,29.48,18,3,25,0.00
2013-4-14,78,64,54,25,22,16,29,21,11,29.50,29.34,22,6,25,0.00
2013-4-15,81,63,46,25,19,6,41,21,6,29.54,29.33,19,4,22,0.00
2013-4-16,81,66,50,25,14,-8,29,16,3,29.58,29.36,25,5,27,0.00
2013-4-17,62,52,39,28,18,6,43,28,12,29.82,29.40,18,4,28,0.00
2013-4-18,50,40,29,18,6,-3,43,26,12,30.23,29.82,20,4,24,0.00
2013-4-19,62,42,26,8,5,-1,43,24,8,30.33,30.00,15,1,16,0.00
2013-4-21,74,64,54,17,11,1,23,14,6,29.86,29.81,13,2,15,0.00
2013-4-22,82,65,46,18,13,3,31,16,5,29.85,29.56,19,3,24,0.00
2013-4-23,70,58,41,30,14,-17,45,20,5,29.90,29.58,19,3,23,0.00
2013-4-24,70,50,28,22,17,7,65,31,12,30.09,29.90,9,1,12,0.00
2013-4-25,78,61,48,29,24,14,39,25,11,29.98,29.63,20,3,26,0.00
2013-4-26,76,60,45,31,19,-7,58,26,4,30.01,29.80,15,2,18,0.00
2013-4-27,77,61,43,29,13,-10,49,22,4,30.05,29.85,14,1,19,0.00
2013-4-28,81,64,45,18,6,-10,34,12,3,29.90,29.66,14,1,17,0.00
2013-4-29,86,67,48,22,13,7,30,14,6,29.73,29.48,23,2,24,0.00
2013-4-30,88,70,54,25,14,1,31,13,4,29.58,29.42,18,3,22,0.00
2013-5-1,83,68,52,26,13,0,34,14,5,29.89,29.53,19,3,23,0.00
2013-5-2,62,50,38,28,18,10,61,32,14,30.31,29.90,13,2,19,0.00
2013-5-3,68,52,33,17,12,5,49,24,9,30.32,29.91,12,2,12,0.00
2013-5-4,77,61,42,20,10,3,41,15,6,29.93,29.68,32,4,38,0.00
2013-5-5,74,62,52,33,20,7,32,20,12,29.91,29.76,40,8,43,0.00
2013-5-6,70,62,56,41,27,16,51,26,17,29.80,29.71,18,4,22,0.00
2013-5-7,77,63,47,41,30,20,59,31,12,29.83,29.63,16,2,23,0.00
2013-5-8,72,60,48,35,24,11,60,29,10,29.82,29.69,17,2,20,0.00
2013-5-9,74,60,45,36,24,18,48,27,14,29.93,29.76,14,2,18,0.00
2013-5-10,65,57,50,46,36,30,72,48,27,30.12,29.88,15,2,19,0.05
2013-5-11,73,58,43,43,36,27,85,50,19,30.18,30.10,22,2,24,0.00
2013-5-12,81,63,45,36,32,25,67,35,13,30.17,29.92,16,1,16,0.00
2013-5-13,84,69,53,32,29,24,41,24,13,30.05,29.83,12,1,13,0.00
2013-5-14,85,70,57,43,25,12,44,21,10,29.86,29.60,13,2,20,0.00
2013-5-15,89,72,60,45,35,23,48,29,10,29.71,29.52,16,2,22,0.00
2013-5-16,87,72,55,27,18,1,33,15,4,29.72,29.53,14,2,21,0.00
2013-5-17,88,72,54,29,20,9,33,15,6,29.73,29.55,24,2,28,0.00
2013-5-18,78,69,57,30,20,9,29,16,9,29.69,29.50,19,3,23,0.00
2013-5-19,75,64,55,36,30,16,47,29,12,29.69,29.60,19,4,24,0.00
2013-5-20,78,62,48,35,28,0,56,31,5,29.77,29.60,20,3,24,0.00
2013-5-21,81,64,46,35,28,16,59,31,10,29.85,29.65,13,2,16,0.00
2013-5-22,87,71,52,29,19,6,39,17,5,29.70,29.51,14,1,15,0.00
2013-5-23,92,75,55,40,18,6,32,14,4,29.68,29.49,17,2,29,0.00
2013-5-24,89,75,58,41,29,15,46,22,7,29.75,29.58,13,2,18,0.00
2013-5-25,92,75,56,40,20,-1,30,15,3,29.77,29.53,13,2,18,0.00
2013-5-26,88,73,54,29,13,-14,31,12,3,29.75,29.56,13,1,17,0.00
2013-5-27,85,70,55,25,12,-6,27,12,3,29.71,29.55,16,2,20,0.00
2013-5-28,85,71,52,26,13,-7,30,13,3,29.60,29.33,11,1,16,0.00
2013-5-29,82,69,56,37,22,1,43,19,5,29.48,29.34,25,4,27,0.00
2013-5-30,88,72,51,29,21,14,41,16,7,29.62,29.48,19,3,28,0.00
2013-5-31,88,74,58,40,24,0,47,19,6,29.67,29.53,18,4,24,0.00
2013-6-1,88,72,50,30,9,-25,27,11,1,29.80,29.67,26,3,32,0.00
2013-6-2,92,75,65,41,35,28,37,24,14,29.78,29.51,29,4,37,0.00
2013-6-3,96,78,63,49,36,6,54,27,5,29.67,29.45,17,2,18,0.00
2013-6-4,94,85,68,32,16,-9,20,9,3,29.66,29.49,15,3,23,0.00
2013-6-5,90,77,61,46,32,17,38,21,8,29.63,29.49,27,2,27,0.00
2013-6-6,94,73,53,43,38,24,63,32,9,29.73,29.57,21,3,30,0.00
2013-6-7,94,77,57,51,40,25,74,33,10,29.71,29.44,23,2,25,0.00
2013-6-8,100,80,62,44,33,18,44,22,6,29.58,29.39,19,2,28,0.00
2013-6-9,101,84,65,48,42,32,50,26,11,29.64,29.50,14,2,19,0.00
2013-6-10,105,88,70,48,35,15,43,20,4,29.64,29.45,29,2,34,0.00
2013-6-11,105,87,66,36,21,-2,29,11,2,29.64,29.46,14,1,18,0.00
2013-6-12,104,84,62,36,23,8,35,13,3,29.70,29.56,10,1,15,0.00
2013-6-13,103,81,67,57,38,26,58,24,9,29.67,29.51,18,2,25,0.20
2013-6-14,97,78,67,60,48,39,61,36,14,29.64,29.39,17,2,24,0.02
2013-6-15,100,79,62,50,40,26,60,31,8,29.75,29.60,15,2,21,0.00
2013-6-16,94,76,63,45,41,36,47,31,13,29.75,29.67,13,1,16,0.00
2013-6-17,97,80,62,48,39,26,49,27,8,29.78,29.56,36,2,37,0.00
2013-6-18,95,79,64,52,45,34,61,34,12,29.74,29.51,31,6,37,0.00
2013-6-19,101,86,66,53,17,-18,39,15,1,29.60,29.40,15,4,24,0.00
2013-6-20,100,85,60,31,4,-18,28,8,1,29.64,29.46,13,3,16,0.00
2013-6-21,99,92,71,46,8,-18,34,7,1,29.66,29.47,16,4,17,0.00
2013-6-22,98,79,59,32,20,7,34,13,4,29.66,29.47,14,2,20,0.00
2013-6-23,99,80,61,23,18,10,23,11,4,29.64,29.43,13,1,17,0.00
2013-6-24,100,83,67,33,19,6,27,11,4,29.61,29.44,17,2,22,0.00
2013-6-25,94,80,62,33,24,18,26,14,7,29.68,29.55,15,2,17,0.00
2013-6-26,107,87,65,36,30,24,33,14,6,29.76,29.56,12,1,14,0.00
2013-6-27,112,91,69,39,31,20,29,14,5,29.71,29.55,17,2,19,0.00
2013-6-28,98,86,73,53,44,33,48,25,13,29.77,29.59,27,4,31,0.01
2013-6-29,97,81,66,50,45,37,55,30,14,29.78,29.60,19,2,23,0.00
2013-6-30,97,79,65,52,47,41,61,34,15,29.78,29.54,32,3,32,0.00
2013-7-1,87,73,61,57,52,45,80,50,28,29.87,29.72,17,2,20,0.04
2013-7-2,87,73,61,54,48,44,70,43,25,29.92,29.68,18,2,26,0.00
2013-7-3,87,71,56,58,53,43,91,58,25,29.86,29.60,14,1,22,0.16
2013-7-4,92,77,61,59,52,43,83,45,23,29.71,29.53,22,2,25,0.64
2013-7-5,91,74,66,65,56,47,89,57,25,29.67,29.47,11,1,16,0.22
2013-7-6,92,76,64,65,56,47,92,56,24,29.71,29.52,17,2,20,0.04
2013-7-7,94,80,64,62,56,48,85,49,22,29.71,29.56,10,1,15,0.02
2013-7-8,94,80,69,61,55,51,77,44,26,29.82,29.63,12,2,17,0.00
2013-7-9,95,79,67,61,56,46,80,49,25,29.83,29.68,23,2,25,0.00
2013-7-10,95,83,70,58,53,47,65,37,21,29.77,29.60,12,2,14,0.00
2013-7-11,89,78,69,61,56,51,70,48,30,29.78,29.59,12,2,14,0.00
2013-7-12,92,79,67,61,56,51,75,47,26,29.73,29.58,11,2,18,0.00
2013-7-13,94,80,67,59,55,47,75,44,22,29.74,29.60,12,2,16,0.00
2013-7-14,97,79,66,62,55,48,88,47,20,29.74,29.49,28,2,35,0.15
2013-7-15,75,68,65,63,56,50,91,67,48,29.88,29.66,15,2,21,0.01
2013-7-16,78,69,62,52,49,45,64,49,36,29.96,29.84,21,2,26,0.00
2013-7-17,81,69,56,56,52,49,90,59,34,30.06,29.90,18,2,22,0.02
2013-7-18,86,73,59,56,54,49,79,53,35,29.98,29.76,17,2,19,0.00
2013-7-19,87,71,58,66,60,54,94,72,40,29.83,29.66,16,1,24,0.85
2013-7-20,86,73,64,64,60,54,91,65,37,29.77,29.60,11,1,14,0.04
2013-7-21,89,76,66,62,57,49,81,55,30,29.72,29.57,14,1,14,0.00
2013-7-22,92,78,64,58,53,42,74,45,18,29.71,29.57,12,1,15,0.00
2013-7-23,95,80,65,58,52,44,68,40,23,29.69,29.53,16,2,22,0.00
2013-7-24,92,75,67,58,54,50,72,50,28,29.83,29.62,19,2,21,0.00
2013-7-25,85,76,65,61,58,56,78,55,40,29.88,29.74,9,2,13,0.00
2013-7-26,88,72,61,64,60,52,98,70,38,29.98,29.79,24,3,32,0.65
2013-7-27,83,72,59,60,57,50,92,63,39,29.99,29.72,11,1,14,0.00
2013-7-28,86,74,67,62,59,52,79,62,33,29.75,29.57,11,1,17,0.06
2013-7-29,90,75,62,62,54,46,87,52,23,29.81,29.68,14,2,17,0.00
2013-7-30,92,78,62,54,50,46,67,40,22,29.92,29.78,11,1,11,0.00
2013-7-31,95,81,67,57,51,42,63,38,18,29.89,29.72,11,1,16,0.00
2013-8-1,87,75,66,63,56,51,89,54,35,29.84,29.70,11,1,16,0.06
2013-8-2,90,74,63,63,59,53,89,64,29,29.81,29.66,11,2,18,0.12
2013-8-3,89,75,61,61,56,49,92,57,28,29.83,29.70,8,1,9,0.00
2013-8-4,92,78,65,62,57,50,86,52,26,29.81,29.65,13,1,23,0.15
2013-8-5,89,74,62,62,58,53,91,61,32,29.81,29.66,11,1,17,0.03
2013-8-6,89,74,64,59,54,48,70,51,28,29.75,29.65,13,1,16,0.00
2013-8-7,82,71,60,58,55,52,82,58,38,29.78,29.69,16,2,19,0.00
2013-8-8,86,73,60,58,52,44,81,52,25,29.78,29.68,14,2,21,0.00
2013-8-9,88,73,57,54,48,39,76,44,19,29.88,29.76,10,1,12,0.00
2013-8-10,85,71,61,56,52,46,75,53,33,30.00,29.82,12,2,17,0.04
2013-8-11,83,70,60,58,54,49,91,62,32,30.03,29.83,8,1,11,0.01
2013-8-12,86,72,66,60,56,50,77,57,34,29.92,29.77,13,1,14,0.00
2013-8-13,89,74,61,58,51,43,76,48,23,29.90,29.76,11,1,11,0.00
2013-8-14,90,74,60,59,51,42,76,48,21,29.87,29.73,17,1,23,0.00
2013-8-15,92,75,61,56,51,42,74,45,19,29.87,29.74,9,1,11,0.00
2013-8-16,94,80,64,53,47,35,65,35,13,29.84,29.69,10,1,15,0.00
2013-8-17,96,81,70,55,47,39,52,32,15,29.80,29.62,14,1,18,0.01
2013-8-18,92,79,66,54,50,45,58,38,21,29.80,29.65,12,1,13,0.00
2013-8-19,94,78,64,56,51,45,64,40,19,29.79,29.63,13,1,15,0.00
2013-8-20,90,75,61,60,55,52,77,53,29,29.81,29.65,11,1,11,0.00
2013-8-21,89,76,63,56,53,47,77,46,29,29.80,29.68,10,1,14,0.00
2013-8-22,90,79,64,58,48,38,56,35,25,29.83,29.65,10,1,16,0.00
2013-8-23,88,76,61,52,46,34,57,36,23,29.79,29.64,12,2,17,0.00
2013-8-24,85,74,67,62,54,46,70,49,34,29.84,29.70,19,1,20,0.02
2013-8-25,82,71,66,65,59,55,93,69,42,29.91,29.82,13,1,19,0.13
2013-8-26,89,75,62,64,56,47,87,56,31,29.96,29.78,9,1,12,0.02
2013-8-27,89,76,62,57,52,44,76,47,29,29.84,29.68,11,1,12,0.00
2013-8-28,88,76,67,57,53,48,61,46,31,29.85,29.72,13,1,16,0.00
2013-8-29,87,75,68,60,55,53,68,51,32,29.89,29.79,13,2,15,0.00
2013-8-30,93,78,63,62,56,45,85,51,23,29.87,29.69,10,1,12,0.00
2013-8-31,94,79,64,59,53,46,77,43,23,29.75,29.57,9,1,12,0.00
2013-9-1,93,76,65,61,52,44,82,46,23,29.81,29.61,29,3,31,0.05
2013-9-2,88,75,64,60,56,50,84,53,30,29.85,29.71,14,1,15,0.00
2013-9-3,91,75,63,62,56,51,85,56,27,29.85,29.68,15,1,20,0.42
2013-9-4,90,77,64,60,48,36,80,41,16,29.92,29.78,15,2,18,0.00
2013-9-5,89,77,61,51,42,35,59,31,20,29.91,29.77,17,2,18,0.00
2013-9-6,90,76,62,50,43,35,57,32,20,29.89,29.71,11,1,14,0.00
2013-9-7,88,76,64,55,51,44,65,43,30,29.82,29.67,11,1,16,0.00
2013-9-8,89,74,61,56,50,45,66,44,25,29.76,29.57,12,1,12,0.00
2013-9-9,85,73,62,65,52,46,84,51,32,29.68,29.52,17,1,19,0.17
2013-9-10,71,65,62,63,58,53,98,81,61,29.84,29.65,12,1,18,0.64
2013-9-11,80,68,60,62,59,52,99,75,39,29.90,29.79,14,1,18,0.01
2013-9-12,71,63,58,66,59,56,97,87,73,29.88,29.77,16,1,19,0.88
2013-9-13,72,62,58,62,59,56,99,90,64,29.87,29.75,9,0,9,0.31
2013-9-14,75,63,57,59,58,55,98,83,55,29.85,29.73,8,1,13,0.90
2013-9-15,77,65,56,60,55,50,99,73,41,29.90,29.79,13,1,19,0.29
2013-9-16,78,66,55,57,55,52,94,70,43,29.97,29.83,8,1,11,0.00
2013-9-17,80,69,58,61,56,53,89,66,41,29.90,29.69,10,1,12,0.00
2013-9-18,82,72,64,61,57,51,79,62,40,29.73,29.58,8,1,14,0.00
2013-9-19,82,70,58,60,53,40,97,60,27,29.73,29.63,9,1,12,0.08
2013-9-20,80,67,56,55,51,43,79,57,40,29.85,29.71,9,1,14,0.00
2013-9-21,79,67,55,58,53,49,91,64,38,29.85,29.67,9,1,13,0.00
2013-9-22,80,66,54,57,52,46,94,64,33,29.70,29.36,22,2,27,0.40
2013-9-23,71,58,45,47,39,34,83,53,29,29.94,29.56,17,2,19,0.00
2013-9-24,76,61,46,46,42,38,82,53,29,30.03,29.83,9,1,10,0.00
2013-9-25,82,68,54,46,42,36,61,39,25,29.82,29.48,13,1,16,0.00
2013-9-26,81,68,54,43,40,36,60,39,21,29.62,29.47,15,2,23,0.00
2013-9-27,72,61,46,51,41,29,64,49,39,29.86,29.52,18,3,21,0.00
2013-9-28,68,53,37,34,27,20,72,41,19,30.14,29.86,14,1,14,0.00
2013-9-29,75,57,41,33,29,24,65,37,16,30.14,29.91,9,1,12,0.00
2013-9-30,80,64,47,37,30,25,55,31,16,29.94,29.70,8,1,12,0.00
2013-10-1,81,64,48,35,29,18,55,29,10,29.84,29.72,9,1,11,0.00
2013-10-2,78,63,48,36,31,22,54,32,13,29.86,29.70,8,0,11,0.00
2013-10-3,77,64,51,39,34,27,52,33,17,29.74,29.53,16,1,16,0.00
2013-10-4,64,55,47,34,23,11,51,31,16,30.01,29.61,17,3,20,0.00
2013-10-5,62,49,36,25,21,16,62,35,19,30.20,30.01,12,2,15,0.00
2013-10-6,69,51,36,29,24,19,62,37,16,30.29,30.13,6,0,8,0.00
2013-10-7,74,57,40,31,26,21,61,33,14,30.19,29.96,10,1,11,0.00
2013-10-8,77,64,50,34,30,25,44,28,18,29.95,29.64,13,1,14,0.00
2013-10-9,75,63,48,39,34,28,62,36,19,29.74,29.62,12,1,14,0.00
2013-10-10,71,57,41,49,37,29,84,47,28,29.81,29.48,24,4,32,0.08
2013-10-11,62,48,34,35,32,29,85,57,33,30.01,29.81,12,2,18,0.00
2013-10-12,69,54,36,38,34,30,85,52,26,30.10,29.94,13,2,20,0.00
2013-10-13,77,62,46,45,39,34,72,46,22,29.99,29.74,16,2,19,0.00
2013-10-14,68,58,45,44,31,19,71,39,19,29.89,29.76,19,2,23,0.00
2013-10-15,64,50,36,34,29,24,67,45,29,29.99,29.82,32,5,43,0.01
2013-10-16,61,50,41,37,29,14,72,48,23,30.04,29.90,26,2,29,0.00
2013-10-17,62,47,33,27,22,19,64,40,20,30.11,29.89,9,1,11,0.00
2013-10-18,63,49,37,24,20,16,56,33,17,30.10,29.91,15,2,18,0.00
2013-10-19,64,47,30,28,22,18,77,41,20,30.17,30.00,11,1,11,0.00
2013-10-20,68,54,35,24,20,14,60,28,14,30.03,29.77,13,2,15,0.00
2013-10-21,63,50,37,33,28,19,68,43,24,30.10,29.86,7,1,9,0.00
2013-10-22,68,51,37,30,26,18,71,41,17,30.20,30.07,7,0,7,0.00
2013-10-23,69,54,38,32,28,23,67,39,21,30.14,29.98,9,0,9,0.00
2013-10-24,74,57,43,49,34,26,88,45,22,30.09,29.93,18,1,23,0.05
2013-10-25,65,53,46,51,45,39,96,76,49,30.09,29.95,14,1,19,0.13
2013-10-26,66,51,39,45,39,34,92,67,39,30.22,30.07,9,1,11,0.00
2013-10-27,67,54,40,40,37,32,86,56,28,30.14,29.81,11,1,12,0.00
2013-10-28,69,58,48,42,34,21,75,43,21,29.81,29.68,11,1,14,0.00
2013-10-29,68,58,50,30,27,23,39,30,22,29.85,29.65,14,2,19,0.00
2013-10-30,60,50,38,37,32,25,75,53,32,29.88,29.64,17,2,22,0.00
2013-10-31,55,44,32,31,27,24,80,54,31,30.07,29.89,19,3,19,0.00
2013-11-1,60,46,33,30,27,25,77,51,28,30.23,30.04,13,1,17,0.00
2013-11-2,63,48,34,30,26,23,75,46,24,30.29,29.99,9,1,11,0.00
2013-11-3,66,54,46,36,30,22,62,41,26,29.99,29.61,13,2,20,0.00
2013-11-4,65,54,39,44,36,33,81,54,33,29.83,29.66,10,1,14,0.00
2013-11-5,55,44,30,44,33,16,94,67,45,30.22,29.66,13,2,18,0.20
2013-11-6,53,39,24,20,18,11,74,45,20,30.49,30.22,11,1,14,0.00
2013-11-7,59,43,28,27,22,16,78,45,23,30.50,30.26,7,0,9,0.00
2013-11-8,61,48,35,29,24,17,60,40,25,30.26,30.00,7,0,9,0.00
2013-11-9,67,50,35,28,25,22,70,41,19,30.16,30.04,7,0,9,0.00
2013-11-10,67,50,37,31,26,24,61,41,21,30.23,30.11,6,0,8,0.00
2013-11-11,68,52,37,32,26,20,69,40,17,30.26,30.13,7,1,9,0.00
2013-11-12,57,46,37,36,31,23,80,58,40,30.48,30.26,9,1,10,0.00
2013-11-13,55,43,31,40,35,28,92,75,54,30.47,30.13,8,1,10,0.00
2013-11-14,59,48,40,42,36,27,86,65,39,30.14,29.87,8,1,10,0.00
2013-11-15,60,48,37,45,35,27,94,63,39,29.88,29.62,15,2,20,0.20
2013-11-16,59,49,43,44,38,29,93,68,42,29.78,29.56,11,1,13,0.02
2013-11-17,58,47,35,35,32,29,83,58,40,30.12,29.78,15,2,17,0.00
2013-11-18,57,44,35,35,31,29,82,64,36,30.21,30.09,7,0,8,0.00
2013-11-19,61,47,34,36,33,29,86,62,36,30.11,29.83,6,0,8,0.00
2013-11-20,49,44,40,42,37,31,95,79,55,29.90,29.81,8,0,9,0.21
2013-11-21,56,48,42,46,43,40,95,84,62,30.02,29.90,9,1,13,0.20
2013-11-22,44,37,34,43,32,28,97,83,71,30.36,29.99,15,2,21,0.03
2013-11-23,40,35,30,32,27,20,93,74,57,30.44,30.29,17,3,21,0.01
2013-11-24,31,28,24,26,24,22,92,85,76,30.38,30.23,8,1,9,0.10
2013-11-25,45,33,26,32,28,24,95,83,56,30.41,30.18,10,1,11,0.04
2013-11-26,47,35,25,32,27,23,93,76,52,30.51,30.41,8,1,9,0.01
2013-11-27,45,35,26,30,27,23,90,73,53,30.46,30.26,7,0,7,0.00
2013-11-28,48,36,26,29,26,22,86,68,45,30.34,30.23,6,0,8,0.00
2013-11-29,53,39,28,32,28,24,85,67,41,30.40,30.27,6,0,7,0.00
2013-11-30,55,42,31,34,31,28,89,69,43,30.34,30.18,7,0,7,0.00
2013-12-1,50,39,31,34,30,25,91,71,51,30.30,30.21,13,3,15,0.00
2013-12-2,52,38,28,30,27,24,86,65,41,30.23,29.89,10,1,12,0.00
2013-12-3,62,48,34,27,21,15,65,37,16,29.90,29.55,16,2,18,0.00
2013-12-4,58,47,36,31,25,16,71,44,24,29.76,29.47,25,6,29,0.00
2013-12-5,36,28,16,31,26,14,94,89,58,30.07,29.73,8,0,9,0.08
2013-12-6,34,23,13,21,16,11,92,76,42,30.33,30.07,5,0,8,0.23
2013-12-7,32,26,16,30,22,12,93,86,78,30.28,29.99,11,1,11,0.01
2013-12-8,32,28,24,27,19,13,88,67,55,30.09,29.91,15,3,20,0.01
2013-12-9,30,24,12,19,10,2,73,57,35,30.63,30.09,19,4,20,0.00
2013-12-10,35,21,8,11,6,2,76,53,29,30.67,30.48,13,1,18,0.00
2013-12-11,43,27,15,20,14,8,78,59,33,30.67,30.50,7,0,8,0.01
2013-12-12,43,31,21,25,20,14,78,63,45,30.64,30.23,6,0,10,0.00
2013-12-13,45,36,32,35,28,20,94,73,57,30.22,30.00,14,2,19,0.01
2013-12-14,45,34,24,23,20,18,81,58,37,30.48,30.16,12,2,13,0.00
2013-12-15,47,36,26,22,20,17,71,53,34,30.50,30.35,14,2,14,0.00
2013-12-16,54,40,29,24,22,20,70,51,28,30.45,30.32,10,1,11,0.00
2013-12-17,56,41,28,25,23,21,77,50,27,30.45,30.29,11,1,13,0.00
2013-12-18,53,40,29,28,24,20,75,54,32,30.29,29.93,5,0,8,0.00
2013-12-19,55,44,32,27,23,18,70,44,30,29.93,29.65,10,1,10,0.00
2013-12-20,52,42,33,34,25,20,78,54,31,29.75,29.57,11,1,12,0.00
2013-12-21,40,35,33,35,30,25,97,80,64,29.88,29.50,18,3,18,0.28
2013-12-22,41,33,28,26,22,17,75,64,40,30.37,29.88,12,1,14,0.00
2013-12-23,46,35,27,22,20,17,67,54,37,30.56,30.36,13,2,14,0.00
2013-12-24,49,37,26,25,22,19,78,57,38,30.46,30.22,11,1,13,0.00
2013-12-25,46,33,23,23,18,13,84,57,30,30.48,30.32,7,1,10,0.00
2013-12-26,48,34,22,21,17,13,73,53,30,30.49,30.33,8,1,10,0.00
2013-12-27,51,35,24,22,18,16,73,53,26,30.45,30.29,4,0,6,0.00
2013-12-28,47,35,25,22,19,16,72,52,31,30.29,29.97,7,1,8,0.00
2013-12-29,47,38,31,26,23,20,70,55,38,30.22,30.00,8,1,13,0.00
2013-12-30,49,37,28,21,14,9,59,41,22,30.39,30.21,13,2,18,0.00
2013-12-31,50,36,25,20,18,16,68,49,29,30.39,30.19,6,1,7,0.00
2014-1-1,54,39,27,24,20,18,70,48,25,30.33,30.13,15,2,19,0.00
2014-1-2,51,36,23,23,16,8,79,49,18,30.41,30.28,7,1,8,0.00